Regional Weather Roundup
Issued by NWS Sioux Falls, SD

Home | Current Version | Previous Version | Graphics & Text | Print | Product List | Glossary Off
Versions: 1 2 3 4 5 6 7 8 9 10 11 12 13 14 15 16 17 18 19 20 21 22 23 24 25 26 27 28 29 30 31 32 33 34 35 36 37 38 39 40 41 42 43 44 45 46 47 48 49 50

000
ASUS43 KFSD 192310
RWRFSD

WEATHER ROUNDUP FOR SE SOUTH DAKOTA/SW MINNESOTA/NW IOWA
NATIONAL WEATHER SERVICE SIOUX FALLS SD
600 PM CDT SUN APR 19 2015

NOTE: "FAIR" INDICATES FEW OR NO CLOUDS BELOW 12,000 FEET WITH NO
SIGNIFICANT WEATHER AND OR OBSTRUCTIONS TO VISIBILITY.


SDZ038>040-050-052>070-200000-
SOUTHEAST SOUTH DAKOTA

CITY           SKY/WX    TMP DP  RH WIND       PRES   REMARKS
BROOKINGS      PTSUNNY   54  30  40 NW31G37   29.72S
CHAMBERLAIN    CLOUDY    51  31  46 NW22G30   29.87R
HURON          PTSUNNY   54  31  41 N22G30    29.78S
MADISON        FAIR      52  28  40 NW29G43   29.74S
MITCHELL       CLOUDY    54  31  41 NW28G38   29.81R
SIOUX FALLS    PTSUNNY   56  29  35 NW32G43   29.72F
WINNER         CLOUDY    51  28  41 NW26G33   29.89S
YANKTON        PTSUNNY   54  30  40 NW26G43   29.77S
$$

MNZ071-072-080-081-089-090-097-098-200000-
SOUTHWEST MINNESOTA

CITY           SKY/WX    TMP DP  RH WIND       PRES   REMARKS
FAIRMONT       CLOUDY    48  34  57 NW16      29.65F
JACKSON        CLOUDY    50  37  62 NW16G24   29.68S
LUVERNE        CLOUDY    54  32  43 N21G33    29.71S
MARSHALL       PTSUNNY   52  37  58 N18G24    29.69R
MONTEVIDEO     PTSUNNY   52  43  71 N15       29.70R
PIPESTONE      PTSUNNY   54  27  35 NW26G36   29.70S
REDWOOD FALLS  MOSUNNY   53  37  54 NW22G35   29.67R
WORTHINGTON    CLOUDY    52  36  54 NW18      29.69F
$$

IAZ001>003-012>014-020>022-031-032-NEZ013-014-SDZ071-200000-
NORTHWEST IOWA

CITY           SKY/WX    TMP DP  RH WIND       PRES   REMARKS
CHEROKEE       CLOUDY    49  43  78 N10       29.70S
DENISON        LGT RAIN  46  46 100 NW18G25   29.69R
ESTHERVILLE    LGT RAIN  47  42  83 NW20G29   29.67S
LE MARS        CLOUDY    54  34  47 N23G32    29.73S
ORANGE CITY    CLOUDY    52  34  50 NW16G24   29.71S
SHELDON        CLOUDY    52  37  58 NW17G26   29.69S
SIOUX CITY     CLOUDY    55  33  43 NW30G36   29.71S
SPENCER        CLOUDY    50  42  74 N17       29.69S
STORM LAKE     LGT RAIN  46  41  81 N24G32    29.70S
$$

ABBREVIATIONS USED IN REMARKS
   TC - TEMPERATURE IN CELSIUS
  WCI - WIND CHILL INDEX
   HX - HEAT INDEX
  VSB - VISIBILITY




USA.gov is the U.S. government's official web portal to all federal, state and local government web resources and services.